Vientiane, Lao Peoples Republic

3:58 AM +07 on December 19, 2017 (GMT +0700)
Wattay International

Weather History for VLVT - March, 2014

Change the Weather History Date:

Wednesday, March 19, 2014

  Actual Average Record
Temperature  
Mean Temperature 88 °F -  
Max Temperature 99 °F 83 °F 101 °F (2016)
Min Temperature 77 °F 74 °F 64 °F (2011)
Cooling Degree Days 23    
Growing Degree Days 38 (Base 50)    
Moisture  
Dew Point 72 °F    
Average Humidity 61    
Maximum Humidity 84    
Minimum Humidity 36    
Precipitation  
Precipitation 0.00 in 0.09 in - ()
Sea Level Pressure  
Sea Level Pressure 29.75 in    
Wind  
Wind Speed 2 mph ()    
Max Wind Speed 7 mph    
Max Gust Speed -    
Visibility 2.4 miles    
Events Thunderstorm    
Averages and records for this station are not official NWS values.
T = Trace of Precipitation, MM = Missing Value Source: Averaged Metar Reports

Daily Weather History Graph

Daily Weather History Graph

Search for Another Location

Airport or City:

Trip Planner

Search our weather history database for the weather conditions in past years. The results will help you decide how hot, cold, wet, or windy it might be!

Date:

Astronomy

Mar. 19, 2014 Rise Set
Actual Time 6:15 AM +07 6:20 PM +07
Civil Twilight 5:53 AM +07 6:42 PM +07
Nautical Twilight 5:28 AM +07 7:07 PM +07
Astronomical Twilight 5:02 AM +07 7:32 PM +07
Moon 8:39 PM +07 (3/19) 7:43 AM +07 (3/19)
Length of Visible Light 12h 48m
Length of Day
12h 05m
Waning Gibbous, 94% of the Moon is Illuminated
Mar 19
Waning Gibbous
Mar 24
Last Quarter
Mar 31
New
Apr 7
First Quarter
Apr 15
Full

Hourly Weather History & Observations

Time (+07) Temp. Heat Index Dew Point Humidity Pressure Visibility Wind Dir Wind Speed Gust Speed Precip Events Conditions
12:00 AM 82.4 °F 88.2 °F 73.4 °F 74% 29.77 in 1.2 mi SSE 2.3 mph - N/A   Mist
4:00 AM 79 °F - 73 °F 78% 29.73 in 1 mi NW 2.2 mph - -   Mist
6:00 AM 78.8 °F - 71.6 °F 78% 29.77 in 1.2 mi NW 2.3 mph - N/A   Partly Cloudy
6:30 AM 78.8 °F - 71.6 °F 78% 29.77 in 1.2 mi NW 2.3 mph - N/A   Partly Cloudy
7:00 AM 78 °F - 72 °F 75% 29.78 in 2 mi NW 2.2 mph - -   Mist
7:00 AM 78.8 °F - 71.6 °F 78% 29.80 in 1.9 mi NW 2.3 mph - N/A   Scattered Clouds
7:30 AM 78.8 °F - 71.6 °F 78% 29.80 in 1.9 mi NW 2.3 mph - N/A   Scattered Clouds
8:00 AM 80.6 °F 83.9 °F 69.8 °F 70% 29.83 in 2.5 mi North 2.3 mph - N/A   Scattered Clouds
8:30 AM 80.6 °F 83.9 °F 69.8 °F 70% 29.83 in 2.5 mi North 2.3 mph - N/A   Scattered Clouds
9:00 AM 82.4 °F 86.3 °F 69.8 °F 66% 29.83 in 2.5 mi NE 2.3 mph - N/A   Mist
9:30 AM 82.4 °F 86.3 °F 69.8 °F 66% 29.83 in 2.5 mi NE 2.3 mph - N/A   Mist
10:00 AM 86 °F - 68 °F 45% 29.82 in 3 mi South 2.2 mph - -   Mist
10:00 AM 86.0 °F 91.8 °F 71.6 °F 62% 29.86 in 3.1 mi South 2.3 mph - N/A   Mist
10:30 AM 86.0 °F 91.8 °F 71.6 °F 62% 29.86 in 3.1 mi South 2.3 mph - N/A   Mist
11:00 AM 87.8 °F 93.8 °F 71.6 °F 58% 29.83 in 3.1 mi SE 2.3 mph - N/A   Haze
11:30 AM 87.8 °F 93.8 °F 71.6 °F 58% 29.83 in 3.1 mi SE 2.3 mph - N/A   Haze
1:00 PM 92 °F - 71 °F 41% 29.73 in 3 mi South 2.2 mph - -   Haze
1:00 PM 89.6 °F 96.2 °F 71.6 °F 55% 29.77 in 3.1 mi South 2.3 mph - N/A   Haze
1:30 PM 89.6 °F 96.2 °F 71.6 °F 55% 29.77 in 3.1 mi South 2.3 mph - N/A   Haze
2:00 PM 96.8 °F 105.1 °F 71.6 °F 44% 29.74 in 3.1 mi ENE 2.3 mph - N/A   Haze
2:30 PM 96.8 °F 105.1 °F 71.6 °F 44% 29.74 in 3.1 mi ENE 2.3 mph - N/A   Haze
3:30 PM 98.6 °F 111.7 °F 75.2 °F 47% 29.71 in 3.1 mi SSE 2.3 mph - N/A   Haze
4:00 PM 100 °F - 75 °F 36% 29.62 in 3 mi East 2.2 mph - -   Haze
4:00 PM 100.4 °F 113.6 °F 75.2 °F 44% 29.68 in 3.1 mi East 2.3 mph - N/A   Haze
4:30 PM 100.4 °F 113.6 °F 75.2 °F 44% 29.68 in 3.1 mi East 2.3 mph - N/A   Haze
5:00 PM 98.6 °F 111.7 °F 75.2 °F 47% 29.65 in 3.1 mi West 2.3 mph - N/A   Haze
5:30 PM 98.6 °F 111.7 °F 75.2 °F 47% 29.65 in 3.1 mi West 2.3 mph - N/A   Haze
6:00 PM 96.8 °F 107.3 °F 73.4 °F 47% 29.65 in 2.5 mi East 2.3 mph - N/A   Haze
6:30 PM 96.8 °F 107.3 °F 73.4 °F 47% 29.65 in 2.5 mi East 2.3 mph - N/A   Haze
7:00 PM 91 °F - 69 °F 39% 29.63 in 2 mi South 6.7 mph - -   Mist
7:00 PM 91.4 °F 96.8 °F 69.8 °F 49% 29.68 in 1.9 mi South 6.9 mph - N/A   Scattered Clouds
7:30 PM 91.4 °F 96.8 °F 69.8 °F 49% 29.68 in 1.9 mi South 6.9 mph - N/A   Scattered Clouds
8:00 PM 86.0 °F 93.4 °F 73.4 °F 66% 29.74 in 1.9 mi West 2.3 mph - N/A Thunderstorm Thunderstorm
8:30 PM 84.2 °F 90.9 °F 73.4 °F 70% 29.74 in 1.9 mi West 2.3 mph - N/A Thunderstorm Thunderstorm
9:00 PM 80.6 °F 86.2 °F 75.2 °F 84% 29.74 in 1.9 mi WSW 6.9 mph - N/A Thunderstorm Thunderstorm
10:00 PM 77.0 °F - 71.6 °F 83% 29.77 in 1.9 mi SW 2.3 mph - N/A   Partly Cloudy
10:30 PM 77.0 °F - 71.6 °F 83% 29.77 in 1.9 mi SW 2.3 mph - N/A   Partly Cloudy
11:00 PM 77.0 °F - 71.6 °F 83% 29.83 in 1.9 mi North 2.3 mph - N/A   Scattered Clouds